Nantucket, MA

11:27 AM EST on February 23, 2017 (GMT -0500)
Nantucket Memorial

Weather History for KACK - October, 2012

Change the Weather History Date:

Saturday, October 13, 2012

  Actual Average Record
Temperature  
Mean Temperature 44 °F -  
Max Temperature 50 °F 61 °F 73 °F (1970)
Min Temperature 39 °F 46 °F 30 °F (1976)
Degree Days  
Heating Degree Days 20    
Moisture  
Dew Point 30 °F    
Average Humidity 56    
Maximum Humidity 68    
Minimum Humidity 43    
Precipitation  
Precipitation 0.00 in - - ()
Sea Level Pressure  
Sea Level Pressure 30.40 in    
Wind  
Wind Speed 13 mph (NW)    
Max Wind Speed 21 mph    
Max Gust Speed 29 mph    
Visibility 10 miles    
Events      
Averages and records for this station are not official NWS values.
T = Trace of Precipitation, MM = Missing Value Source: NWS Daily Summary

Daily Weather History Graph

Daily Weather History Graph

Search for Another Location

Airport or City:

Trip Planner

Search our weather history database for the weather conditions in past years. The results will help you decide how hot, cold, wet, or windy it might be!

Date:

Astronomy

Oct. 13, 2012 Rise Set
Actual Time 6:50 AM EDT 6:01 PM EDT
Civil Twilight 6:22 AM EDT 6:29 PM EDT
Nautical Twilight 5:50 AM EDT 7:01 PM EDT
Astronomical Twilight 5:18 AM EDT 7:33 PM EDT
Moon 4:35 AM EDT (10/13) 4:44 PM EDT (10/13)
Length of Visible Light 12h 07m
Length of Day
11h 11m
Waning Crescent, 5% of the Moon is Illuminated
Oct 13
Waning Crescent
Oct 15
New
Oct 21
First Quarter
Oct 29
Full
Nov 6
Last Quarter

Hourly Weather History & Observations

Time (EDT) Temp. Windchill Dew Point Humidity Pressure Visibility Wind Dir Wind Speed Gust Speed Precip Events Conditions
12:53 AM 44.1 °F 35.7 °F 25.0 °F 47% 30.33 in 10.0 mi North 20.7 mph 28.8 mph N/A   Clear
1:53 AM 44.1 °F 36.5 °F 27.0 °F 51% 30.35 in 10.0 mi NNW 17.3 mph 24.2 mph N/A   Mostly Cloudy
2:53 AM 44.1 °F 36.2 °F 28.0 °F 53% 30.36 in 10.0 mi North 18.4 mph 23.0 mph N/A   Mostly Cloudy
3:53 AM 43.0 °F 35.7 °F 28.0 °F 56% 30.37 in 10.0 mi North 15.0 mph - N/A   Scattered Clouds
4:53 AM 43.0 °F 37.2 °F 28.9 °F 58% 30.38 in 10.0 mi North 10.4 mph - N/A   Mostly Cloudy
5:53 AM 41.0 °F 35.8 °F 28.9 °F 62% 30.39 in 10.0 mi North 8.1 mph - N/A   Clear
6:53 AM 39.9 °F 36.7 °F 30.0 °F 68% 30.42 in 10.0 mi NNW 4.6 mph - N/A   Partly Cloudy
7:53 AM 45.0 °F 40.6 °F 32.0 °F 60% 30.43 in 10.0 mi NW 8.1 mph - N/A   Partly Cloudy
8:53 AM 46.0 °F 41.4 °F 32.0 °F 58% 30.45 in 10.0 mi NNW 9.2 mph - N/A   Partly Cloudy
9:53 AM 46.9 °F - 33.1 °F 59% 30.46 in 10.0 mi WNW 11.5 mph - N/A   Partly Cloudy
10:53 AM 48.9 °F - 33.1 °F 54% 30.46 in 10.0 mi North 8.1 mph - N/A   Partly Cloudy
11:53 AM 48.0 °F - 30.9 °F 52% 30.45 in 10.0 mi WNW 9.2 mph - N/A   Clear
12:53 PM 46.9 °F - 28.9 °F 50% 30.43 in 10.0 mi WSW 8.1 mph - N/A   Clear
1:53 PM 48.9 °F - 28.0 °F 44% 30.41 in 10.0 mi WSW 9.2 mph 17.3 mph N/A   Clear
2:53 PM 50.0 °F - 28.0 °F 43% 30.40 in 10.0 mi West 11.5 mph - N/A   Clear
4:53 PM 48.0 °F - 28.0 °F 46% 30.40 in 10.0 mi West 10.4 mph - N/A   Clear
5:53 PM 45.0 °F 41.8 °F 32.0 °F 60% 30.40 in 10.0 mi West 5.8 mph - N/A   Clear
6:53 PM 44.1 °F 40.1 °F 32.0 °F 63% 30.42 in 10.0 mi West 6.9 mph - N/A   Clear
8:53 PM 44.1 °F - 33.1 °F 65% 30.41 in 10.0 mi Calm Calm - N/A   Clear
10:53 PM 48.9 °F - 35.1 °F 59% 30.38 in 10.0 mi SSW 6.9 mph - N/A   Clear
11:53 PM 50.0 °F - 36.0 °F 59% 30.36 in 10.0 mi SSW 13.8 mph - N/A   Clear